Weather History for K3I2 - May, 2013

Change the Weather History Date:

Friday, May 24, 2013

  Actual Average (KHTS) Record (KHTS)
Temperature  
Mean Temperature 53 °F 66 °F  
Max Temperature 64 °F 77 °F 91 °F (1939)
Min Temperature 42 °F 55 °F 37 °F (1956)
Degree Days  
Heating Degree Days 12 3  
Month to date heating degree days 100  
Since 1 July heating degree days 4488  
Cooling Degree Days 0 3  
Month to date cooling degree days 52  
Year to date cooling degree days 84  
Growing Degree Days 3 (Base 50)    
Moisture  
Dew Point 39 °F    
Average Humidity 57    
Maximum Humidity 82    
Minimum Humidity 32    
Precipitation  
Precipitation 0.00 in 0.15 in 2.39 in (1902)
Month to date precipitation 3.57  
Year to date precipitation 16.95  
Snow  
Snow 0.00 in - - ()
Month to date snowfall  
Since 1 September snowfall  
Snow Depth -    
Sea Level Pressure  
Sea Level Pressure 30.22 in    
Wind  
Wind Speed 5 mph (NNW)    
Max Wind Speed 10 mph    
Max Gust Speed 16 mph    
Visibility 10 miles    
Events Rain    
T = Trace of Precipitation, MM = Missing Value Source: NWS Daily Summary

Daily Weather History Graph

Daily Weather History Graph

Search for Another Location

Airport or City:

Trip Planner

Search our weather history database for the weather conditions in past years. The results will help you decide how hot, cold, wet, or windy it might be!

Date:

Astronomy

May. 24, 2013 Rise Set
Actual Time 6:08 AM EDT 8:42 PM EDT
Civil Twilight 5:38 AM EDT 9:13 PM EDT
Nautical Twilight 4:59 AM EDT 9:51 PM EDT
Astronomical Twilight 4:17 AM EDT 10:34 PM EDT
Moon 8:23 PM EDT (5/24) 5:39 AM EDT (5/24)
Length of Visible Light 15h 34m
Length of Day
14h 33m
Full, 100% of the Moon is Illuminated
May 24
Full
May 25
Full
May 31
Last Quarter
Jun 8
New
Jun 16
First Quarter

Hourly Weather History & Observations

Time (EDT) Temp. Windchill Dew Point Humidity Pressure Visibility Wind Dir Wind Speed Gust Speed Precip Events Conditions
12:15 AM 57.2 °F - 50.0 °F 77% 30.01 in 10.0 mi NW 4.6 mph - N/A   Overcast
12:35 AM 55.4 °F - 50.0 °F 82% 30.03 in 10.0 mi North 8.1 mph - N/A   Overcast
12:55 AM 53.6 °F - 46.4 °F 77% 30.04 in 10.0 mi NNW 5.8 mph - N/A   Overcast
1:15 AM 53.6 °F - 44.6 °F 72% 30.05 in 10.0 mi North 5.8 mph - N/A   Overcast
1:35 AM 53.6 °F - 46.4 °F 77% 30.05 in 7.0 mi NW 5.8 mph - N/A Rain Rain
1:55 AM 51.8 °F - 46.4 °F 82% 30.06 in 10.0 mi North 4.6 mph - N/A   Overcast
2:15 AM 51.8 °F - 46.4 °F 82% 30.06 in 10.0 mi North 5.8 mph - N/A   Overcast
2:35 AM 51.8 °F - 46.4 °F 82% 30.06 in 10.0 mi North 6.9 mph - N/A   Overcast
2:55 AM 51.8 °F - 44.6 °F 76% 30.07 in 10.0 mi North 4.6 mph - N/A   Overcast
3:15 AM 51.8 °F - 44.6 °F 76% 30.07 in 10.0 mi Calm Calm - N/A   Overcast
3:35 AM 51.8 °F - 46.4 °F 82% 30.08 in 10.0 mi NNW 5.8 mph - N/A   Overcast
3:55 AM 51.8 °F - 44.6 °F 76% 30.09 in 10.0 mi Calm Calm - N/A   Overcast
4:15 AM 51.8 °F - 44.6 °F 76% 30.10 in 10.0 mi North 5.8 mph - N/A   Overcast
4:35 AM 51.8 °F - 44.6 °F 76% 30.11 in 10.0 mi North 4.6 mph - N/A   Overcast
4:55 AM 51.8 °F - 42.8 °F 71% 30.12 in 10.0 mi North 5.8 mph - N/A   Mostly Cloudy
5:15 AM 51.8 °F - 42.8 °F 71% 30.13 in 10.0 mi Calm Calm - N/A   Mostly Cloudy
5:35 AM 50.0 °F - 42.8 °F 76% 30.13 in 10.0 mi Calm Calm - N/A   Overcast
5:55 AM 50.0 °F - 42.8 °F 76% 30.15 in 10.0 mi NW 4.6 mph - N/A   Overcast
6:15 AM 50.0 °F - 41.0 °F 71% 30.16 in 10.0 mi Calm Calm - N/A   Overcast
6:35 AM 50.0 °F - 41.0 °F 71% 30.17 in 10.0 mi NNW 4.6 mph - N/A   Mostly Cloudy
6:55 AM 50.0 °F - 39.2 °F 66% 30.18 in 10.0 mi North 3.5 mph - N/A   Scattered Clouds
7:15 AM 50.0 °F - 41.0 °F 71% 30.19 in 10.0 mi WNW 3.5 mph - N/A   Mostly Cloudy
7:35 AM 50.0 °F - 41.0 °F 71% 30.20 in 10.0 mi NW 4.6 mph - N/A   Mostly Cloudy
7:55 AM 50.0 °F - 39.2 °F 66% 30.20 in 10.0 mi North 4.6 mph - N/A   Mostly Cloudy
8:15 AM 51.8 °F - 37.4 °F 58% 30.22 in 10.0 mi NNW 5.8 mph - N/A   Scattered Clouds
8:35 AM 51.8 °F - 37.4 °F 58% 30.22 in 10.0 mi NNE 3.5 mph - N/A   Scattered Clouds
8:55 AM 53.6 °F - 37.4 °F 54% 30.22 in 10.0 mi North 5.8 mph - N/A   Scattered Clouds
9:15 AM 51.8 °F - 37.4 °F 58% 30.23 in 10.0 mi NW 4.6 mph - N/A   Scattered Clouds
9:35 AM 53.6 °F - 37.4 °F 54% 30.24 in 10.0 mi NW 3.5 mph - N/A   Mostly Cloudy
9:55 AM 53.6 °F - 41.0 °F 62% 30.25 in 10.0 mi WNW 5.8 mph - N/A   Mostly Cloudy
10:15 AM 55.4 °F - 39.2 °F 54% 30.25 in 10.0 mi NNW 5.8 mph - N/A   Mostly Cloudy
10:35 AM 55.4 °F - 35.6 °F 47% 30.27 in 10.0 mi Calm Calm - N/A   Scattered Clouds
10:55 AM 59.0 °F - 35.6 °F 42% 30.27 in 10.0 mi NNW 4.6 mph - N/A   Mostly Cloudy
11:15 AM 53.6 °F - 35.6 °F 51% 30.28 in 10.0 mi NW 5.8 mph - N/A   Mostly Cloudy
11:35 AM 57.2 °F - 35.6 °F 44% 30.28 in 10.0 mi West 6.9 mph - N/A   Scattered Clouds
11:55 AM 55.4 °F - 35.6 °F 47% 30.29 in 10.0 mi NW 4.6 mph - N/A   Mostly Cloudy
12:15 PM 59.0 °F - 35.6 °F 42% 30.29 in 10.0 mi North 9.2 mph - N/A   Scattered Clouds
12:35 PM 57.2 °F - 35.6 °F 44% 30.29 in 10.0 mi NNW 5.8 mph - N/A   Scattered Clouds
12:55 PM 55.4 °F - 35.6 °F 47% 30.30 in 10.0 mi NW 4.6 mph - N/A   Scattered Clouds
1:15 PM 55.4 °F - 37.4 °F 51% 30.30 in 10.0 mi NW 4.6 mph - N/A   Mostly Cloudy
1:35 PM 60.8 °F - 35.6 °F 39% 30.30 in 10.0 mi NNW 8.1 mph - N/A   Scattered Clouds
1:55 PM 59.0 °F - 35.6 °F 42% 30.30 in 10.0 mi North 8.1 mph - N/A   Scattered Clouds
2:15 PM 60.8 °F - 35.6 °F 39% 30.29 in 10.0 mi NNE 6.9 mph 16.1 mph N/A   Scattered Clouds
2:35 PM 62.6 °F - 35.6 °F 37% 30.29 in 10.0 mi NW 8.1 mph - N/A   Scattered Clouds
2:55 PM 60.8 °F - 35.6 °F 39% 30.28 in 10.0 mi NW 3.5 mph - N/A   Clear
3:15 PM 64.4 °F - 35.6 °F 34% 30.28 in 10.0 mi WNW 10.4 mph - N/A   Clear
3:35 PM 64.4 °F - 33.8 °F 32% 30.28 in 10.0 mi WNW 6.9 mph - N/A   Clear
3:55 PM 64.4 °F - 33.8 °F 32% 30.27 in 10.0 mi NW 5.8 mph - N/A   Clear
4:15 PM 64.4 °F - 33.8 °F 32% 30.27 in 10.0 mi WNW 4.6 mph - N/A   Clear
4:35 PM 64.4 °F - 33.8 °F 32% 30.27 in 10.0 mi WNW 8.1 mph - N/A   Clear
4:55 PM 64.4 °F - 33.8 °F 32% 30.26 in 10.0 mi WNW 9.2 mph - N/A   Clear
5:15 PM 64.4 °F - 33.8 °F 32% 30.27 in 10.0 mi NW 5.8 mph - N/A   Clear
5:35 PM 64.4 °F - 33.8 °F 32% 30.27 in 10.0 mi West 9.2 mph - N/A   Clear
5:55 PM 64.4 °F - 33.8 °F 32% 30.27 in 10.0 mi NW 4.6 mph - N/A   Clear
6:15 PM 62.6 °F - 33.8 °F 34% 30.27 in 10.0 mi West 6.9 mph 16.1 mph N/A   Clear
6:35 PM 62.6 °F - 33.8 °F 34% 30.27 in 10.0 mi NW 6.9 mph - N/A   Clear
6:55 PM 62.6 °F - 33.8 °F 34% 30.27 in 10.0 mi North 6.9 mph - N/A   Clear
7:15 PM 60.8 °F - 33.8 °F 36% 30.28 in 10.0 mi Calm Calm - N/A   Clear
7:35 PM 60.8 °F - 33.8 °F 36% 30.28 in 10.0 mi WNW 4.6 mph - N/A   Clear
7:55 PM 59.0 °F - 33.8 °F 39% 30.28 in 10.0 mi North 3.5 mph - N/A   Clear
8:15 PM 55.4 °F - 33.8 °F 44% 30.29 in 10.0 mi NNE 3.5 mph - N/A   Clear
8:35 PM 55.4 °F - 35.6 °F 47% 30.29 in 10.0 mi Calm Calm - N/A   Clear
8:55 PM 53.6 °F - 33.8 °F 47% 30.29 in 10.0 mi Calm Calm - N/A   Clear
9:15 PM 51.8 °F - 35.6 °F 54% 30.28 in 10.0 mi Calm Calm - N/A   Clear
9:35 PM 50.0 °F - 37.4 °F 62% 30.29 in 10.0 mi Calm Calm - N/A   Clear
9:55 PM 48.2 °F - 37.4 °F 66% 30.29 in 10.0 mi Calm Calm - N/A   Clear
10:15 PM 46.4 °F - 37.4 °F 71% 30.30 in 10.0 mi Calm Calm - N/A   Clear
10:35 PM 44.6 °F - 37.4 °F 76% 30.31 in 10.0 mi Calm Calm - N/A   Clear
10:55 PM 44.6 °F - 37.4 °F 76% 30.32 in 10.0 mi Calm Calm - N/A   Clear
11:15 PM 44.6 °F - 37.4 °F 76% 30.32 in 10.0 mi Calm Calm - N/A   Clear
11:35 PM 42.8 °F - 37.4 °F 81% 30.33 in 10.0 mi Calm Calm - N/A   Clear
11:55 PM 42.8 °F 41.1 °F 37.4 °F 81% 30.33 in 10.0 mi NE 3.5 mph - N/A   Clear